map of KBL home
KBL - Airport
Location
City:  Kabul, Kabul, Afghanistan
Name:Hamid Karzai International Airport
ICAO:OAKB
IATA:KBL

Details
Type:Airport (Aerodrome, Airfield)
Use:International (customs port of entry)
Latitude:3433'57"N (34.565842)
Longitude:6912'45"E (69.212419)
Elevation:5871 ft (1789 m)
Variation:3.22E (WMM2015 magnetic declination)
0.06 annual change
Runways:1
Longest:11483 × 164 ft (3500 × 50 m), paved

Time
Time Zone:UTC+4:30
Local Time:

Weather
METAR:OAKB 190950Z 15005KT 120V240 9999 SCT090 14/M01 Q1023 NOSIG RMK A3022 BLU BLU
TAF:OAKB 181105Z 1812/1912 VRB02KT 9999 FEW060 BKN100 PROB40
TEMPO 1816/1822 02012KT 6000 VCSH BKN080
BECMG 1900/1902 5000 FU
BECMG 1904/1906 06012KT 9999 SCT100

Related Locations
Nearby:
Farthest:IPC: 11914 mi / 19174 km
Easter Island (Isla de Pascua, Rapa Nui) [Mataveri Intl], VS, CL

Find:

   beyond  
but within

Other Information
Maps:
NOTAMs:
Links:
Sources:

  
  • flag of Afghanistan
  

Sectional Chart

Flight Planning
at skyvector.com

Satellite Image

Google Maps Satellite view

 

Copyright © 2004-2018 Karl L. Swartz. All rights reserved.
The Great Circle Mapper name and logo are trademarks of the Great Circle Mapper.
All other trademarks mentioned herein belong to their respective owners.
Please see credits for attibutions and further copyright information.

  Follow gcmap on Facebook Follow gcmap on Twitter Follow gcmap on Google+ GCmap on LinkedIn

hCard Microformat

Geo Microformat